WGN2574 EDDS-EDDP

Flight info

Callsign WGN2574
Flight time N/A
Altitude 23000
Route DKB4H/07 DKB N869 AMOSA Z77 LONLI/N0447F260 M726 LASGA/N0472F340 T953 VOCIM/N0474F330 T954 GOXLI GOXLI1R
Aircraft MD11/H-SDE1E2E3FGHIJ2J3J4J5M1RWXY/LB1D1

Departure

Time 2026-04-30 20:16
Airport Stuttgart Airport (EDDS)

Arrival

Time N/A
Airport Leipzig/Halle Airport (EDDP)
Time Latitude Longitude Altitude Speed Heading
2026-04-30 20:16 48.69675 9.25995 2479 ft 178 kts 77°
2026-04-30 20:16 48.69977 9.27769 3561 ft 171 kts 81°
2026-04-30 20:17 48.70288 9.29496 4073 ft 169 kts 78°
2026-04-30 20:17 48.70626 9.31199 4794 ft 172 kts 77°
2026-04-30 20:17 48.70998 9.33118 5015 ft 206 kts 77°
2026-04-30 20:17 48.71424 9.35331 5171 ft 232 kts 76°
2026-04-30 20:18 48.71897 9.37780 5451 ft 248 kts 76°
2026-04-30 20:18 48.72384 9.40296 6377 ft 252 kts 75°
2026-04-30 20:18 48.72874 9.42843 7268 ft 258 kts 75°
2026-04-30 20:18 48.73377 9.45469 8187 ft 261 kts 75°
2026-04-30 20:19 48.73922 9.48111 9074 ft 266 kts 68°
2026-04-30 20:19 48.74884 9.50532 9954 ft 271 kts 56°
2026-04-30 20:19 48.76084 9.52893 10307 ft 297 kts 53°
2026-04-30 20:19 48.77454 9.55440 10443 ft 328 kts 52°
2026-04-30 20:20 48.78861 9.58021 10849 ft 344 kts 52°
2026-04-30 20:20 48.80410 9.60851 11731 ft 348 kts 52°
2026-04-30 20:20 48.81961 9.63691 12596 ft 351 kts 52°
2026-04-30 20:20 48.83524 9.66562 13478 ft 353 kts 51°
2026-04-30 20:21 48.85093 9.69451 14333 ft 356 kts 51°
2026-04-30 20:21 48.86668 9.72360 15051 ft 359 kts 51°
2026-04-30 20:21 48.88263 9.75311 15739 ft 363 kts 51°
2026-04-30 20:21 48.89868 9.78284 16423 ft 366 kts 51°
2026-04-30 20:22 48.91495 9.81303 17085 ft 370 kts 51°
2026-04-30 20:22 48.93127 9.84335 17762 ft 373 kts 51°
2026-04-30 20:22 48.94777 9.87403 18414 ft 376 kts 51°
2026-04-30 20:22 48.96440 9.90500 19003 ft 379 kts 51°
2026-04-30 20:23 48.98110 9.93613 19557 ft 382 kts 51°
2026-04-30 20:23 48.99775 9.96721 20095 ft 384 kts 51°
2026-04-30 20:23 49.01472 9.99892 20633 ft 387 kts 51°
2026-04-30 20:23 49.03175 10.03079 21165 ft 389 kts 51°
2026-04-30 20:24 49.04890 10.06292 21688 ft 393 kts 51°
2026-04-30 20:24 49.06619 10.09534 22079 ft 394 kts 51°
2026-04-30 20:24 49.08352 10.12788 22472 ft 395 kts 51°
2026-04-30 20:24 49.10091 10.16057 22867 ft 397 kts 51°
2026-04-30 20:25 49.13601 10.22571 23017 ft 395 kts 49°
2026-04-30 20:25 49.15429 10.25602 23019 ft 393 kts 46°
2026-04-30 20:26 49.19253 10.31578 23028 ft 393 kts 46°
2026-04-30 20:26 49.23093 10.37505 23297 ft 394 kts 46°
2026-04-30 20:26 49.25031 10.40479 23373 ft 394 kts 45°
2026-04-30 20:27 49.29688 10.44808 23387 ft 399 kts 19°
2026-04-30 20:27 49.35103 10.46859 23388 ft 401 kts 17°
2026-04-30 20:28 49.40411 10.49218 23385 ft 399 kts 21°
2026-04-30 20:28 49.45654 10.52012 23388 ft 399 kts 22°
2026-04-30 20:29 49.50857 10.54955 23384 ft 398 kts 23°
2026-04-30 20:30 49.58641 10.59416 23386 ft 397 kts 23°
2026-04-30 20:30 49.66409 10.63880 23393 ft 397 kts 23°
2026-04-30 20:31 49.74176 10.68355 23389 ft 397 kts 23°
2026-04-30 20:32 49.81932 10.72839 23387 ft 397 kts 23°
2026-04-30 20:32 49.87172 10.75512 23396 ft 398 kts 17°
2026-04-30 20:33 49.89843 10.76425 23397 ft 399 kts 15°
2026-04-30 20:33 49.95287 10.78060 23401 ft 398 kts 14°
2026-04-30 20:33 49.98011 10.78848 23397 ft 398 kts 14°
2026-04-30 20:34 50.03451 10.80408 23397 ft 398 kts 14°
2026-04-30 20:34 50.08810 10.82363 23283 ft 389 kts 24°
2026-04-30 20:35 50.11268 10.84104 23000 ft 392 kts 29°
2026-04-30 20:35 50.13711 10.86032 22711 ft 394 kts 29°
2026-04-30 20:35 50.18619 10.89769 22191 ft 391 kts 27°
2026-04-30 20:36 50.21071 10.91528 21931 ft 390 kts 27°
2026-04-30 20:36 50.23551 10.93264 21672 ft 389 kts 27°
2026-04-30 20:36 50.28492 10.96662 21170 ft 387 kts 26°
2026-04-30 20:37 50.30949 10.98343 21061 ft 386 kts 26°
2026-04-30 20:37 50.33414 11.00028 20955 ft 386 kts 26°
2026-04-30 20:37 50.35872 11.01712 20861 ft 385 kts 26°
2026-04-30 20:37 50.38328 11.03395 20761 ft 384 kts 26°
2026-04-30 20:38 50.40772 11.05073 20664 ft 383 kts 26°
2026-04-30 20:38 50.43184 11.06730 20571 ft 383 kts 26°
2026-04-30 20:38 50.45613 11.08401 20482 ft 382 kts 26°
2026-04-30 20:39 50.50484 11.11758 20182 ft 381 kts 27°
2026-04-30 20:39 50.52909 11.13432 20000 ft 380 kts 27°
2026-04-30 20:39 50.55329 11.15105 19812 ft 379 kts 27°
2026-04-30 20:40 50.60147 11.18440 19468 ft 377 kts 27°
2026-04-30 20:40 50.62546 11.20107 19424 ft 377 kts 27°
2026-04-30 20:40 50.64934 11.21817 19431 ft 377 kts 28°
2026-04-30 20:41 50.69657 11.25270 18929 ft 371 kts 28°
2026-04-30 20:41 50.71961 11.26958 18833 ft 365 kts 28°
2026-04-30 20:41 50.74296 11.28673 18831 ft 372 kts 28°
2026-04-30 20:41 50.76646 11.30397 18790 ft 369 kts 28°
2026-04-30 20:42 50.78186 11.31525 18144 ft 369 kts 28°
2026-04-30 20:42 50.80496 11.33218 17483 ft 366 kts 27°
2026-04-30 20:42 50.85849 11.37148 16015 ft 362 kts 27°
2026-04-30 20:43 50.87397 11.38286 15595 ft 361 kts 27°
2026-04-30 20:43 50.89670 11.39958 14990 ft 359 kts 27°
2026-04-30 20:43 50.91904 11.41604 14399 ft 358 kts 27°
2026-04-30 20:44 50.96404 11.44922 13099 ft 354 kts 27°
2026-04-30 20:44 50.98627 11.46563 12607 ft 349 kts 27°
2026-04-30 20:44 51.03028 11.49819 11845 ft 347 kts 27°
2026-04-30 20:45 51.07179 11.53565 11452 ft 342 kts 39°
2026-04-30 20:45 51.08918 11.56137 11437 ft 340 kts 50°
2026-04-30 20:45 51.10299 11.59174 11432 ft 339 kts 60°
2026-04-30 20:46 51.12101 11.69964 11431 ft 342 kts 84°
2026-04-30 20:46 51.12269 11.73741 11431 ft 342 kts 84°
2026-04-30 20:47 51.12579 11.81274 11377 ft 337 kts 84°
2026-04-30 20:47 51.12744 11.84990 10619 ft 339 kts 84°
2026-04-30 20:48 51.13085 11.92202 10056 ft 310 kts 84°
2026-04-30 20:48 51.13285 11.95517 9911 ft 292 kts 77°
2026-04-30 20:48 51.14068 11.98368 9755 ft 276 kts 54°
2026-04-30 20:48 51.15323 12.00571 9622 ft 263 kts 46°
2026-04-30 20:49 51.16639 12.02551 9272 ft 259 kts 44°
2026-04-30 20:49 51.17962 12.04498 8847 ft 258 kts 44°
2026-04-30 20:49 51.19285 12.06434 8431 ft 257 kts 44°
2026-04-30 20:50 51.21912 12.10280 7619 ft 256 kts 44°
2026-04-30 20:50 51.23223 12.12194 7229 ft 256 kts 44°
2026-04-30 20:50 51.24588 12.14020 6768 ft 258 kts 32°
2026-04-30 20:50 51.26280 12.14840 6366 ft 262 kts
2026-04-30 20:51 51.28078 12.14276 5932 ft 269 kts 337°
2026-04-30 20:51 51.30310 12.09638 5109 ft 275 kts 279°
2026-04-30 20:51 51.30213 12.06634 4713 ft 272 kts 252°
2026-04-30 20:52 51.29537 12.03812 4348 ft 272 kts 245°
2026-04-30 20:52 51.28761 12.01050 4032 ft 269 kts 244°
2026-04-30 20:52 51.27661 11.95404 3963 ft 269 kts 267°
2026-04-30 20:53 51.27609 11.92453 3987 ft 270 kts 269°
2026-04-30 20:53 51.27587 11.89491 3959 ft 258 kts 269°
2026-04-30 20:53 51.27565 11.86726 3943 ft 247 kts 269°
2026-04-30 20:54 51.27522 11.81270 3956 ft 245 kts 269°
2026-04-30 20:54 51.27648 11.78555 3941 ft 244 kts 288°
2026-04-30 20:54 51.28497 11.76282 3950 ft 239 kts 320°
2026-04-30 20:55 51.31506 11.74724 3974 ft 231 kts 359°
2026-04-30 20:55 51.33084 11.74861 3944 ft 224 kts 21°
2026-04-30 20:55 51.34392 11.76113 3970 ft 220 kts 43°
2026-04-30 20:56 51.36675 11.79333 3958 ft 220 kts 44°
2026-04-30 20:56 51.37818 11.80959 3959 ft 220 kts 44°
2026-04-30 20:56 51.39790 11.84573 3938 ft 207 kts 75°
2026-04-30 20:57 51.40008 11.86725 3937 ft 192 kts 84°
2026-04-30 20:57 51.40107 11.88836 3982 ft 187 kts 89°
2026-04-30 20:57 51.40116 11.90814 3912 ft 167 kts 89°
2026-04-30 20:58 51.40082 11.94426 3776 ft 161 kts 90°
2026-04-30 20:58 51.40087 11.96206 3562 ft 160 kts 88°
2026-04-30 20:58 51.40133 11.97988 3356 ft 160 kts 85°
2026-04-30 20:58 51.40218 11.99763 3150 ft 160 kts 85°
2026-04-30 20:59 51.40381 12.03289 2733 ft 159 kts 85°
2026-04-30 20:59 51.40461 12.05043 2531 ft 158 kts 85°
2026-04-30 21:00 51.40623 12.08562 2059 ft 159 kts 85°
2026-04-30 21:00 51.40748 12.12048 1621 ft 162 kts 86°
2026-04-30 21:01 51.40924 12.15577 1136 ft 161 kts 86°
2026-04-30 21:01 51.41010 12.17337 889 ft 155 kts 87°
2026-04-30 21:01 51.41177 12.20863 476 ft 158 kts 86°
2026-04-30 21:02 51.41293 12.22406 463 ft 123 kts 71°